Weather Roundup
Issued by NWS Chicago, IL

Home | Current Version | Previous Version | Graphics & Text | Print | Product List | Glossary On
Versions: 1 2 3 4 5 6 7 8 9 10 11 12 13 14 15 16 17 18 19 20 21 22 23 24 25 26 27 28 29 30 31 32 33 34 35 36 37 38 39 40 41 42 43 44 45 46 47 48 49 50
000
NZUS59 KLOT 021212
HRRLOT

CHICAGO AREA WEATHER ROUNDUP
NATIONAL WEATHER SERVICE CHICAGO/ROMEOVILLE IL
700 AM CDT TUE JUN 02 2015

NOTE: "FAIR" INDICATES FEW OR NO CLOUDS BELOW 12,000 FEET WITH NO
SIGNIFICANT WEATHER AND/OR OBSTRUCTIONS TO VISIBILITY.

* THESE STATIONS ARE NOT UNDER NWS QUALITY CONTROL. THEY ALSO MAY NOT
  REPORT WEATHER SUCH AS PRECIPITATION OR FOG.

ILZ005-006-012>014-019>023-021300-
NORTHEAST ILLINOIS

CITY           SKY/WX    TMP DP  RH WIND       PRES   REMARKS
OHARE          MOSUNNY   48  42  80 CALM      30.20R
6HR MIN TEMP:  42; 6HR MAX TEMP:  48;

MIDWAY         MOSUNNY   52  44  74 CALM      30.21R
6HR MIN TEMP:  45; 6HR MAX TEMP:  52;

AURORA         SUNNY     48  40  73 NE3       30.21R
6HR MIN TEMP:  42; 6HR MAX TEMP:  48;

LANSING*       SUNNY     47  43  87 CALM      30.21R
JOLIET*        SUNNY     49  44  83 CALM      30.20F
WAUKEGAN       SUNNY     48  42  80 NE3       30.20S
6HR MIN TEMP:  38; 6HR MAX TEMP:  48;

DUPAGE AIRPORT SUNNY     47  41  80 N3        30.20R
6HR MIN TEMP:  41; 6HR MAX TEMP:  47;

WHEELING       SUNNY     48  42  80 N3        30.22R
6HR MIN TEMP:  41; 6HR MAX TEMP:  48;

KANKAKEE*      SUNNY     48  45  89 CALM      30.21R
MORRIS*        SUNNY     48  41  79 E3        30.18R
LEWIS AIRPORT* SUNNY     48  42  81 CALM      30.21S
NORTHERLY IS     N/A     51  45  79 N3          N/A
$$

WIZ051-052-058>065-066-070>072-021300-
SOUTHEAST WISCONSIN

CITY           SKY/WX    TMP DP  RH WIND       PRES   REMARKS
MILWAUKEE      MOSUNNY   50  39  66 CALM      30.22R
6HR MIN TEMP:  41; 6HR MAX TEMP:  50;

KENOSHA*         N/A     48  41  76 MISG      30.22R
RACINE*        SUNNY     48  42  80 CALM      30.24R
BURLINGTON     SUNNY     42  40  92 CALM      30.21S
WAUKESHA       SUNNY     45  37  76 CALM      30.23S
WEST BEND      SUNNY     45  39  81 CALM      30.22S
$$

INZ001>003-010>013-019-020-021300-
NORTHWEST INDIANA

CITY           SKY/WX    TMP DP  RH WIND       PRES   REMARKS
GARY*          NOT AVBL
MICHIGAN CITY* NOT AVBL
RENSSELAER*    NOT AVBL
VALPARAISO     SUNNY     51  47  86 NE3       30.21R
$$

LMZ740>746-021300-
SOUTHERN LAKE MICHIGAN

STATION/POSITION TIME  SKY/WX   TEMP WIND        PRES    VSBY
                                AIR  DIR/SP/G
                 (UTC)          (F)  (DEG/KT/KT) (MB)    (MI)
HARRISON CRIB    1100            49  350/  3/  4   N/A
BURNHAM HARBOR   1200            52   30/  2/  4   N/A
CALUMET HARBOR   1100            48   CALM  /  1   N/A
BURNS HARBOR     1100                170/  3/  7 1023.0R
MICHIGAN CITY    1100            49  130/  7/  8   N/A
$$

ABBREVIATIONS USED IN REMARKS
   TC - TEMPERATURE IN CELSIUS
  WCI - WIND CHILL INDEX
   HX - HEAT INDEX
  VSB - VISIBILITY
$$



USA.gov is the U.S. government's official web portal to all federal, state and local government web resources and services.